| time (UTC) | temp C | wind direction | speed KPH | gust KPH | rain 1hr cm | rain 24hr cm | rain mn cm | humidity % | barometer mb |
| 20260506073102 | 5 | 68 | 0.0 | 4.8 | 0.00 | 0.00 | 0.00 | 72 | 1017.4 |
| 20260506071546 | 5 | 69 | 3.2 | 8.0 | 0.00 | 0.00 | 0.00 | 73 | 1017.4 |
| 20260506061554 | 4 | 76 | 0.0 | 4.8 | 0.00 | 0.00 | 0.00 | 75 | 1017.3 |
| 20260506050124 | 2 | 76 | 0.0 | 0.0 | 0.00 | 0.00 | 0.00 | 79 | 1017.3 |
| 20260506044606 | 2 | 76 | 0.0 | 1.6 | 0.00 | 0.00 | 0.00 | 79 | 1017.3 |
| 20260506043129 | 2 | 76 | 0.0 | 0.0 | 0.00 | 0.00 | 0.00 | 78 | 1017.2 |
| 20260506041524 | 2 | 76 | 0.0 | 1.6 | 0.00 | 0.00 | 0.00 | 78 | 1017.1 |
| 20260506040106 | 3 | 76 | 0.0 | 0.0 | 0.00 | 0.00 | 0.00 | 78 | 1017.1 |
| 20260506034601 | 3 | 76 | 0.0 | 0.0 | 0.00 | 0.00 | 0.00 | 78 | 1017.1 |
| 20260506033127 | 3 | 76 | 0.0 | 0.0 | 0.00 | 0.00 | 0.00 | 78 | 1017.2 |
| 20260506031522 | 3 | 76 | 0.0 | 0.0 | 0.00 | 0.00 | 0.00 | 79 | 1017.3 |
| 20260506030057 | 3 | 76 | 0.0 | 1.6 | 0.00 | 0.00 | 0.00 | 79 | 1017.4 |
| 20260506024557 | 3 | 76 | 0.0 | 0.0 | 0.00 | 0.00 | 0.00 | 80 | 1017.4 |
| 20260506023117 | 3 | 76 | 0.0 | 0.0 | 0.00 | 0.00 | 0.00 | 79 | 1017.4 |
| 20260506021518 | 3 | 76 | 0.0 | 1.6 | 0.00 | 0.00 | 0.00 | 79 | 1017.3 |
| 20260506020132 | 3 | 76 | 0.0 | 3.2 | 0.00 | 0.00 | 0.00 | 79 | 1017.4 |
| 20260506014530 | 3 | 76 | 0.0 | 3.2 | 0.00 | 0.00 | 0.00 | 79 | 1017.5 |
| 20260506013014 | 3 | 76 | 0.0 | 0.0 | 0.00 | 0.00 | 0.00 | 80 | 1017.6 |
| 20260506011602 | 3 | 76 | 0.0 | 1.6 | 0.00 | 0.00 | 0.00 | 81 | 1017.7 |
| 20260506010121 | 3 | 76 | 0.0 | 1.6 | 0.00 | 0.00 | 0.00 | 81 | 1017.8 |
| 20260506004527 | 3 | 76 | 0.0 | 1.6 | 0.00 | 0.00 | 0.00 | 81 | 1017.8 |
| 20260506003053 | 3 | 76 | 0.0 | 1.6 | 0.00 | 0.00 | 0.00 | 81 | 1017.8 |
| 20260506001553 | 3 | 76 | 0.0 | 1.6 | 0.00 | 0.00 | 0.00 | 80 | 1017.8 |
| 20260506000123 | 3 | 76 | 0.0 | 3.2 | 0.00 | 0.00 | 0.00 | 80 | 1017.6 |
| 20260505234502 | 3 | 76 | 0.0 | 1.6 | 0.00 | 0.00 | 0.00 | 79 | 1017.8 |
| 20260505233006 | 3 | 76 | 0.0 | 1.6 | 0.00 | 0.00 | 0.00 | 79 | 1017.8 |
| 20260505231552 | 4 | 76 | 0.0 | 3.2 | 0.00 | 0.00 | 0.00 | 79 | 1017.8 |
| 20260505230101 | 4 | 102 | 0.0 | 3.2 | 0.00 | 0.00 | 0.00 | 79 | 1017.9 |
| 20260505224553 | 4 | 98 | 0.0 | 1.6 | 0.00 | 0.00 | 0.00 | 78 | 1018.0 |
| 20260505223118 | 4 | 79 | 0.0 | 4.8 | 0.00 | 0.00 | 0.00 | 78 | 1017.9 |
| 20260505221504 | 5 | 85 | 0.0 | 3.2 | 0.00 | 0.00 | 0.00 | 77 | 1018.2 |
| 20260505220125 | 5 | 75 | 0.0 | 4.8 | 0.00 | 0.00 | 0.00 | 77 | 1018.1 |
| 20260505214546 | 5 | 67 | 0.0 | 4.8 | 0.00 | 0.00 | 0.00 | 76 | 1018.0 |
| 20260505213101 | 5 | 64 | 1.6 | 9.7 | 0.00 | 0.00 | 0.00 | 75 | 1017.9 |
| 20260505211541 | 5 | 87 | 1.6 | 8.0 | 0.00 | 0.00 | 0.00 | 75 | 1017.9 |
| 20260505204600 | 5 | 61 | 3.2 | 9.7 | 0.00 | 0.00 | 0.00 | 74 | 1017.9 |
| 20260505203130 | 5 | 105 | 1.6 | 9.7 | 0.00 | 0.00 | 0.00 | 74 | 1017.8 |
| 20260505201534 | 5 | 54 | 1.6 | 12.9 | 0.00 | 0.00 | 0.00 | 74 | 1017.9 |
| 20260505200018 | 5 | 66 | 0.0 | 11.3 | 0.00 | 0.00 | 0.00 | 73 | 1017.8 |
| 20260505194557 | 5 | 53 | 3.2 | 12.9 | 0.00 | 0.00 | 0.00 | 73 | 1017.7 |
| 20260505193125 | 5 | 157 | 4.8 | 14.5 | 0.00 | 0.00 | 0.00 | 72 | 1017.7 |
| 20260505191512 | 6 | 83 | 4.8 | 14.5 | 0.00 | 0.00 | 0.00 | 71 | 1017.6 |
| 20260505190007 | 6 | 71 | 1.6 | 16.1 | 0.00 | 0.00 | 0.00 | 70 | 1017.6 |
| 20260505184544 | 6 | 63 | 8.0 | 19.3 | 0.00 | 0.00 | 0.00 | 69 | 1017.5 |
| 20260505183108 | 6 | 67 | 8.0 | 20.9 | 0.00 | 0.00 | 0.00 | 69 | 1017.5 |
| 20260505181604 | 6 | 333 | 4.8 | 19.3 | 0.00 | 0.00 | 0.00 | 69 | 1017.3 |
| 20260505180129 | 6 | 72 | 4.8 | 16.1 | 0.00 | 0.00 | 0.00 | 68 | 1017.5 |
| 20260505174528 | 6 | 95 | 4.8 | 20.9 | 0.00 | 0.00 | 0.00 | 68 | 1017.3 |
| 20260505173018 | 6 | 57 | 3.2 | 19.3 | 0.00 | 0.00 | 0.00 | 70 | 1017.4 |
| 20260505171553 | 6 | 73 | 6.4 | 20.9 | 0.00 | 0.00 | 0.00 | 70 | 1017.4 |
| 20260505170114 | 7 | 80 | 6.4 | 17.7 | 0.00 | 0.00 | 0.00 | 72 | 1017.3 |
| 20260505164502 | 7 | 64 | 6.4 | 14.5 | 0.00 | 0.00 | 0.00 | 70 | 1017.3 |
| 20260505163009 | 7 | 76 | 6.4 | 20.9 | 0.00 | 0.00 | 0.00 | 72 | 1017.2 |
| 20260505161536 | 7 | 73 | 3.2 | 20.9 | 0.00 | 0.00 | 0.00 | 71 | 1017.2 |
| 20260505153122 | 7 | 44 | 4.8 | 22.5 | 0.00 | 0.00 | 0.00 | 73 | 1017.2 |
| 20260505151531 | 7 | 30 | 8.0 | 20.9 | 0.00 | 0.00 | 0.00 | 74 | 1017.1 |
| 20260505140135 | 7 | 92 | 9.7 | 20.9 | 0.00 | 0.00 | 0.00 | 78 | 1016.9 |
| 20260505130133 | 7 | 70 | 6.4 | 20.9 | 0.00 | 0.00 | 0.00 | 78 | 1016.9 |
| 20260505123058 | 7 | 55 | 9.7 | 27.4 | 0.00 | 0.00 | 0.00 | 76 | 1016.7 |
| 20260505121558 | 7 | 74 | 12.9 | 24.1 | 0.00 | 0.00 | 0.00 | 76 | 1016.6 |
| 20260505120112 | 7 | 93 | 16.1 | 35.4 | 0.00 | 0.00 | 0.00 | 75 | 1016.5 |
| 20260505114501 | 7 | 61 | 14.5 | 33.8 | 0.00 | 0.00 | 0.00 | 77 | 1016.3 |
| 20260505113003 | 8 | 51 | 12.9 | 27.4 | 0.00 | 0.00 | 0.00 | 77 | 1016.2 |
| 20260505111531 | 9 | 76 | 17.7 | 30.6 | 0.00 | 0.00 | 0.00 | 76 | 1016.0 |
| 20260505101603 | 9 | 27 | 3.2 | 16.1 | 0.00 | 0.00 | 0.00 | 67 | 1015.7 |
| 20260505100124 | 8 | 46 | 4.8 | 11.3 | 0.00 | 0.00 | 0.00 | 66 | 1015.7 |
| 20260505094532 | 8 | 86 | 4.8 | 17.7 | 0.00 | 0.00 | 0.00 | 68 | 1015.6 |
| 20260505093005 | 8 | 9 | 6.4 | 12.9 | 0.00 | 0.00 | 0.00 | 68 | 1015.5 |
| 20260505091537 | 8 | 350 | 6.4 | 12.9 | 0.00 | 0.00 | 0.00 | 68 | 1015.4 |
| 20260505090101 | 8 | 30 | 4.8 | 12.9 | 0.00 | 0.00 | 0.00 | 69 | 1015.3 |
| 20260505084603 | 8 | 322 | 4.8 | 17.7 | 0.00 | 0.00 | 0.00 | 70 | 1015.3 |
| 20260505083014 | 8 | 355 | 6.4 | 12.9 | 0.00 | 0.00 | 0.00 | 70 | 1015.3 |
| 20260505081533 | 8 | 10 | 4.8 | 12.9 | 0.00 | 0.00 | 0.00 | 74 | 1015.1 |
| 20260505074543 | 7 | 336 | 3.2 | 12.9 | 0.00 | 0.00 | 0.00 | 80 | 1014.9 |